User: anonymous   Login
Location: Unspecified
(0.0000°N, 0.0000°E)
Time: 01:47:08
(UTC+00:00)
Language:

USA 276 - Orbit

View from above orbital plane
View from above orbital plane
View from above satellite
View from above satellite

Ground track
Ground track

The orbit data is extracted from the following two-line orbital elements,

1 42689U 17022A   18145.78624605 0.00003500  00000-0  45837-4 0    00
2 42689  49.9983  61.0842 0011807 217.1415 142.8582 15.57796031    06
Epoch (UTC): 25 May 2018 18:52:11
Eccentricity: 0.0011807
inclination: 49.9983°
perigee height: 386 km
apogee height: 402 km
right ascension of ascending node: 61.0842°
argument of perigee: 217.1415°
revolutions per day: 15.57796031
mean anomaly at epoch: 142.8582°
orbit number at epoch: 0

The dashed part of the orbit path shows where the satellite is in the earth's shadow,  

DLR